Weather History for Cocoa Beach, FL

Change the Weather History Date:

Sunday, May 12, 2013

  Actual Average Record
Temperature  
Mean Temperature 80 °F -  
Max Temperature 87 °F 80 °F 95 °F (2003)
Min Temperature 72 °F 69 °F 66 °F (2000)
Cooling Degree Days 14    
Growing Degree Days 30 (Base 50)    
Moisture  
Dew Point 71 °F    
Average Humidity 82    
Maximum Humidity 94    
Minimum Humidity 54    
Precipitation  
Precipitation 0.08 in - - ()
Sea Level Pressure  
Sea Level Pressure 30.00 in    
Wind  
Wind Speed 10 mph (SW)    
Max Wind Speed 13 mph    
Max Gust Speed 18 mph    
Visibility 9 miles    
Events Rain , Thunderstorm    
Averages and records for this station are not official NWS values.
T = Trace of Precipitation, MM = Missing Value Source: NWS Daily Summary

Daily Weather History Graph

Daily Weather History Graph

Search for Another Location

Airport:

Trip Planner

Search our weather history database for the weather conditions in past years. The results will help you decide how hot, cold, wet, or windy it might be!

Date:

Astronomy

May. 12, 2013 Rise Set
Actual Time 6:33 AM EDT 8:03 PM EDT
Civil Twilight 6:08 AM EDT 8:29 PM EDT
Nautical Twilight 5:38 AM EDT 8:59 PM EDT
Astronomical Twilight 5:06 AM EDT 9:31 PM EDT
Moon 8:30 AM EDT (5/12) 10:27 PM EDT (5/12)
Length of Visible Light 14h 20m
Length of Day
13h 29m
Waxing Crescent, 6% of the Moon is Illuminated
May 12
Waxing Crescent
May 18
First Quarter
May 25
Full
May 31
Last Quarter
Jun 8
New

Hourly Weather History & Observations

Time (EDT) Temp. Heat Index Dew Point Humidity Pressure Visibility Wind Dir Wind Speed Gust Speed Precip Events Conditions
12:58 AM 72.7 °F - 69.4 °F 90% 30.04 in 10.0 mi SSW 9.2 mph - N/A   Clear
1:58 AM 72.7 °F - 69.3 °F 89% 30.04 in 10.0 mi SSW 11.5 mph - N/A   Clear
2:58 AM 72.5 °F - 69.3 °F 90% 30.03 in 10.0 mi SSW 6.9 mph - N/A   Clear
3:58 AM 72.3 °F - 68.9 °F 89% 29.99 in 10.0 mi SSW 6.9 mph - N/A   Clear
4:58 AM 72.0 °F - 68.9 °F 90% 29.98 in 10.0 mi SSW 6.9 mph - N/A   Clear
5:58 AM 72.7 °F - 70.3 °F 92% 29.99 in 10.0 mi SW 11.5 mph - N/A   Clear
6:58 AM 72.0 °F - 70.2 °F 94% 30.01 in 10.0 mi WSW 8.1 mph - N/A   Clear
7:58 AM 72.9 °F - 70.7 °F 93% 30.03 in 10.0 mi West 9.2 mph - N/A   Partly Cloudy
8:08 AM 73.4 °F - 69.8 °F 88% 30.01 in 10.0 mi WSW 10.4 mph - N/A   Mostly Cloudy
8:13 AM 73.4 °F - 71.6 °F 94% 30.02 in 10.0 mi WSW 10.4 mph - N/A   Mostly Cloudy
8:58 AM 73.0 °F - 71.1 °F 93% 30.04 in 10.0 mi West 12.7 mph - N/A   Overcast
9:43 AM 75.2 °F - 71.6 °F 89% 30.03 in 10.0 mi West 12.7 mph - N/A   Overcast
9:58 AM 75.7 °F - 72.3 °F 89% 30.04 in 10.0 mi West 12.7 mph - N/A   Overcast
10:18 AM 77.0 °F - 71.6 °F 83% 30.03 in 10.0 mi WSW 12.7 mph - N/A   Overcast
10:23 AM 77.0 °F - 71.6 °F 83% 30.03 in 10.0 mi West 12.7 mph - N/A   Overcast
10:28 AM 77.0 °F - 71.6 °F 83% 30.03 in 10.0 mi West 10.4 mph - N/A   Overcast
10:38 AM 78.8 °F - 71.6 °F 78% 30.03 in 10.0 mi West 11.5 mph - N/A   Mostly Cloudy
10:53 AM 80.6 °F 84.6 °F 71.6 °F 74% 30.03 in 10.0 mi West 10.4 mph - N/A   Scattered Clouds
10:58 AM 79.9 °F - 72.5 °F 78% 30.04 in 10.0 mi West 11.5 mph - N/A   Partly Cloudy
11:58 AM 82.9 °F 88.0 °F 71.8 °F 69% 30.04 in 10.0 mi West 10.4 mph - N/A   Clear
12:58 PM 84.9 °F 89.7 °F 70.5 °F 62% 30.03 in 10.0 mi West 8.1 mph - N/A   Clear
1:58 PM 86.7 °F 90.3 °F 68.2 °F 54% 29.99 in 10.0 mi West 9.2 mph - N/A   Clear
2:58 PM 87.4 °F 92.3 °F 69.8 °F 56% 29.98 in 10.0 mi West 8.1 mph - N/A   Clear
3:58 PM 82.2 °F 88.5 °F 74.5 °F 77% 29.96 in 10.0 mi SSE 10.4 mph - N/A   Partly Cloudy
4:58 PM 80.1 °F 84.1 °F 72.5 °F 78% 29.96 in 10.0 mi SE 10.4 mph - N/A   Partly Cloudy
5:52 PM 80.6 °F 83.2 °F 68.0 °F 65% 29.96 in 7.0 mi East 12.7 mph - N/A   Scattered Clouds
5:58 PM 81.3 °F 84.8 °F 70.0 °F 68% 29.96 in 6.0 mi ESE 12.7 mph - N/A Thunderstorm Haze
6:54 PM 78.8 °F - 71.6 °F 78% 29.96 in 10.0 mi SE 11.5 mph - N/A Rain Light Rain
6:58 PM 78.6 °F - 71.6 °F 79% 29.98 in 10.0 mi SE 12.7 mph - 0.00 in Rain Light Rain
7:11 PM 77.0 °F - 73.4 °F 89% 29.96 in 10.0 mi SE 11.5 mph - N/A   Mostly Cloudy
7:20 PM 77.0 °F - 73.4 °F 89% 29.96 in 10.0 mi SSE 10.4 mph - N/A Rain Light Rain
7:25 PM 77.0 °F - 73.4 °F 89% 29.97 in 2.5 mi West 9.2 mph - N/A Rain Heavy Rain
7:30 PM 77.0 °F - 69.8 °F 78% 29.97 in 1.8 mi Variable 5.8 mph - N/A Rain Light Rain
7:35 PM 77.0 °F - 71.6 °F 83% 29.97 in 4.0 mi SSE 5.8 mph 18.4 mph N/A Rain Light Rain
7:42 PM 77.0 °F - 73.4 °F 89% 29.97 in 10.0 mi South 8.1 mph 18.4 mph N/A   Mostly Cloudy
7:58 PM 77.5 °F - 72.0 °F 83% 29.99 in 10.0 mi South 10.4 mph - 0.08 in   Scattered Clouds
8:23 PM 77.0 °F - 73.4 °F 89% 29.99 in 10.0 mi South 5.8 mph - N/A Thunderstorm Thunderstorm
8:38 PM 77.0 °F - 71.6 °F 83% 29.99 in 10.0 mi South 5.8 mph - N/A Thunderstorm Scattered Clouds
8:58 PM 75.6 °F - 72.0 °F 89% 30.01 in 10.0 mi South 5.8 mph - N/A   Scattered Clouds
9:58 PM 76.6 °F - 72.3 °F 86% 30.04 in 10.0 mi SW 6.9 mph - N/A   Clear
10:58 PM 77.2 °F - 70.0 °F 78% 30.04 in 10.0 mi West 10.4 mph - N/A   Clear
11:58 PM 76.5 °F - 70.3 °F 81% 30.04 in 10.0 mi WNW 10.4 mph - N/A   Clear